Regional Weather Roundup
Issued by NWS Austin/San Antonio, TX

Home | Current Version | Previous Version | Text Only | Print | Product List | Glossary On
Versions: 1 2 3 4 5 6 7 8 9 10 11 12 13 14 15 16 17 18 19 20 21 22 23 24 25 26 27 28 29 30 31 32 33 34 35 36 37 38 39 40 41 42 43 44 45 46 47 48 49 50
683
ASUS44 KEWX 211210
RWREWX
SOUTH TEXAS REGIONAL WEATHER ROUNDUP
NATIONAL WEATHER SERVICE AUSTIN/SAN ANTONIO TX
700 AM CDT SUN APR 21 2019

NOTE: "FAIR" INDICATED FEW OR NO CLOUDS BELOW 12,000 FEET WITH NO
SIGNIFICANT WEATHER AND/OR OBSTRUCTIONS TO VISIBILITY.

* - THESE STATIONS ARE NOT NWS OR FAA STATIONS...AND ARE NOT SUBJECT
    TO NWS AND FAA QUALITY CONTROL.

TXZ171-172-183>190-211300-
TEXAS HILL COUNTRY AND EDWARDS PLATEAU

CITY           SKY/WX    TMP DP  RH WIND       PRES   REMARKS
JUNCTION       CLEAR     58  52  80 CALM      29.92S
6HR MIN TEMP:  58; 6HR MAX TEMP:  66;

*LLANO         CLEAR     61  52  72 S6        29.96S
BURNET         CLEAR     59  54  83 S9        29.96R
6HR MIN TEMP:  59; 6HR MAX TEMP:  64;

*HORSESHOE BAY CLEAR     61  54  77 S8        29.94R
6HR MIN TEMP:  61; 6HR MAX TEMP:  66;

*KERRVILLE     CLOUDY    59  56  87 S12G17    29.97R
6HR MIN TEMP:  56; 6HR MAX TEMP:  61;

*FREDERICKSBRG CLOUDY    60  55  82 S10G18    29.97R
6HR MIN TEMP:  56; 6HR MAX TEMP:  62;

*ROCKSPRINGS     N/A     57  55  94 SE15G21   29.97S
*BOERNE STAGE  CLOUDY    59  59 100 S7        29.99R
*CASTROVILLE   CLOUDY    59  59  99 CALM      29.98S
HONDO          CLOUDY    63  60  90 E6        29.96R
6HR MIN TEMP:  55; 6HR MAX TEMP:  65;

*UVALDE        CLOUDY    60  58  96 E6        29.95S
6HR MIN TEMP:  55; 6HR MAX TEMP:  61;

DEL RIO        CLEAR     61  54  77 E12G17    29.89R
6HR MIN TEMP:  61; 6HR MAX TEMP:  71;

LAUGHLIN AFB   MOCLDY    59  55  85 E13       29.89R
6HR MIN TEMP:  59; 6HR MAX TEMP:  67;

CARRIZO SPRGS  CLOUDY    61  59  94 E7        29.90S
*FAITH RANCH   CLOUDY    64  61  88 SE7       29.89S
$$

TXZ173-191>194-202-209-217>225-228-211300-
CENTRAL AND SOUTH CENTRAL TEXAS

CITY           SKY/WX    TMP DP  RH WIND       PRES   REMARKS
GEORGETOWN     MOCLDY    59  57  93 S7        29.97R
6HR MIN TEMP:  59; 6HR MAX TEMP:  66;

AUSTIN/BERGSTM FOG       58  58 100 S6        29.97R VSB 1/4
6HR MIN TEMP:  50; 6HR MAX TEMP:  63;

AUSTIN/MABRY   MOCLDY    58  56  93 CALM      29.98R
6HR MIN TEMP:  58; 6HR MAX TEMP:  65;

*AUSTIN/EXEC   FOG       57  57 100 S8        29.97S VSB 1/2
*LAGO VISTA    CLEAR     57  56  98 S6        29.96S
6HR MIN TEMP:  57; 6HR MAX TEMP:  63;

SAN MARCOS     FOG       51  50  96 SE3       29.98S VSB 1/4
6HR MIN TEMP:  50; 6HR MAX TEMP:  61;

NEW BRAUNFELS  FOG       55  54  96 W3        29.96R VSB 1/4
6HR MIN TEMP:  55; 6HR MAX TEMP:  60;

RANDOLPH AFB   CLEAR     53  52  97 N5        29.97R
6HR MIN TEMP:  53; 6HR MAX TEMP:  61;

PT SAN ANTONIO CLOUDY    59  59 100 CALM      29.95R
6HR MIN TEMP:  55; 6HR MAX TEMP:  63;

SAN ANTONIO    CLOUDY    61  59  93 S8        29.98R
6HR MIN TEMP:  58; 6HR MAX TEMP:  63;

STINSON FIELD  CLOUDY    60  55  83 CALM      29.96R
6HR MIN TEMP:  56; 6HR MAX TEMP:  62;

*LA GRANGE     CLEAR     60  60 100 S5        29.97R
6HR MIN TEMP:  59; 6HR MAX TEMP:  62;

*GIDDINGS      CLEAR     60  60 100 S3        29.99R FOG
6HR MIN TEMP:  59; 6HR MAX TEMP:  65;

*GONZALES      CLOUDY    59  59 100 SE3       29.98R FOG
6HR MIN TEMP:  57; 6HR MAX TEMP:  61;

$$

TXZ163>164-176>182-195>201-210>213-226-227-235-211300-
SOUTHEAST TEXAS

CITY           SKY/WX    TMP DP  RH WIND       PRES   REMARKS
COLLEGE STN    CLEAR     56  55  97 SE7       29.99R
6HR MIN TEMP:  56; 6HR MAX TEMP:  61;

*BRYAN         CLEAR     55  55 100 SE7       30.00R
6HR MIN TEMP:  54; 6HR MAX TEMP:  62;

*CALDWELL      FOG       54  53  98 SE5       29.98S VSB<1/4
6HR MIN TEMP:  54; 6HR MAX TEMP:  59;

*CROCKETT        N/A     54  50  87 SE6       30.03S
*BRENHAM       CLEAR     55  55 100 SE3       30.00R
6HR MIN TEMP:  55; 6HR MAX TEMP:  62;

HUNTSVILLE     PTCLDY    59  53  80 S6        30.01R
6HR MIN TEMP:  57; 6HR MAX TEMP:  61;

CONROE         CLEAR     48  48 100 CALM      30.02R
6HR MIN TEMP:  47; 6HR MAX TEMP:  53;

HOUSTON BUSH   PTCLDY    57  56  96 S3        30.02R
6HR MIN TEMP:  54; 6HR MAX TEMP:  59;

HOUSTON HOBBY  FAIR      58  55  90 SE7       30.02R
6HR MIN TEMP:  57; 6HR MAX TEMP:  61;

*HOUSTON SW AP FAIR      53  53 100 CALM      30.03R FOG
6HR MIN TEMP:  49; 6HR MAX TEMP:  54;

PEARLAND       FAIR      56  55  97 CALM      30.04R
6HR MIN TEMP:  56; 6HR MAX TEMP:  61;

HOUSTON HOOKS  FAIR      53  53 100 CALM      30.02R
6HR MIN TEMP:  53; 6HR MAX TEMP:  60;

ELLINGTON FLD  NOT AVBL
SUGAR LAND     FAIR      59  56  89 SE5       30.01R
6HR MIN TEMP:  55; 6HR MAX TEMP:  60;

*HOUSTON EXEC  FAIR      57  57 100 SE6       30.02R
*CLEVELAND MUN FAIR      49  49 100 CALM      30.04R
6HR MIN TEMP:  49; 6HR MAX TEMP:  54;

*WHARTON       CLEAR     56  55  94 SE3       30.01R
6HR MIN TEMP:  55; 6HR MAX TEMP:  58;

*COLUMBUS      FAIR      55  49  81 CALM      30.01R HAZE
6HR MIN TEMP:  55; 6HR MAX TEMP:  58;

*EAGLE LAKE    SUNNY     54  53  97 CALM      30.00
6HR MIN TEMP:  54; 6HR MAX TEMP:  61;

$$

TXZ214>216-236>238-211300-
THE UPPER TEXAS COAST

CITY           SKY/WX    TMP DP  RH WIND       PRES   REMARKS
*ORANGE        FAIR      52  52 100 CALM      30.07R
6HR MIN TEMP:  51; 6HR MAX TEMP:  54;

PORT ARTHUR    FAIR      56  54  93 SE3       30.04R
6HR MIN TEMP:  53; 6HR MAX TEMP:  58;

GALVESTON      FAIR      65  57  75 S10       30.04R
6HR MIN TEMP:  65; 6HR MAX TEMP:  67;

ANGLETON       FAIR      54  53  97 CALM      30.01R
6HR MIN TEMP:  52; 6HR MAX TEMP:  58;

*BAY CITY      CLEAR     59  58  96 SE5       30.00R
PALACIOS       CLEAR     67  65  93 SE9       29.99R
6HR MIN TEMP:  67; 6HR MAX TEMP:  69;

$$

TXZ229>234-239>247-211300-
TEXAS COASTAL BEND AND RIO GRANDE PLAINS

CITY           SKY/WX    TMP DP  RH WIND       PRES   REMARKS
VICTORIA       CLEAR     59  58  96 SE7       29.98R
6HR MIN TEMP:  58; 6HR MAX TEMP:  61;

*BEEVILLE      CLEAR     59  56  88 SE6       29.95R FOG
6HR MIN TEMP:  59; 6HR MAX TEMP:  61;

ROCKPORT       CLEAR     69  62  78 SE12      29.97R
6HR MIN TEMP:  69; 6HR MAX TEMP:  69;

*PORT ARANSAS  CLEAR     71  64  79 SE16G22   29.98S
6HR MIN TEMP:  71; 6HR MAX TEMP:  71;

*PORT LAVACA   CLEAR     64  62  94 SE6       29.99R
6HR MIN TEMP:  62; 6HR MAX TEMP:  65;

*INGLESIDE     CLEAR     69  64  83 S9        29.96R
CORPUS CHRISTI PTCLDY    65  62  90 SE12      29.95R
6HR MIN TEMP:  63; 6HR MAX TEMP:  67;

CORPUS NAS     CLEAR     73  67  81 S16       29.95R
6HR MIN TEMP:  73; 6HR MAX TEMP:  74;

*ROBSTOWN      NOT AVBL
ALICE          CLEAR     62  60  93 SE7       29.93S
6HR MIN TEMP:  57; 6HR MAX TEMP:  62;

KINGSVILLE NAS CLEAR     68  63  84 MISG      29.94S
6HR MIN TEMP:  66; 6HR MAX TEMP:  68;

COTULLA        CLOUDY    64  62  93 SE12      29.92S
6HR MIN TEMP:  60; 6HR MAX TEMP:  64;

LAREDO         CLEAR     64  62  93 SE12      29.89R
6HR MIN TEMP:  64; 6HR MAX TEMP:  71;

$$

TXZ248>255-211300-
DEEP SOUTH TEXAS

CITY           SKY/WX    TMP DP  RH WIND       PRES   REMARKS
BROWNSVILLE    FAIR      66  64  93 SE9       29.96R
6HR MIN TEMP:  66; 6HR MAX TEMP:  71;

PORT ISABEL    FAIR      69  63  81 SE12      29.95R
6HR MIN TEMP:  69; 6HR MAX TEMP:  70;

HARLINGEN



USA.gov is the U.S. government's official web portal to all federal, state and local government web resources and services.